User: anonymous   Login
Location: Caltech
(34.1382°N, 118.1253°W)
Time: 12:57:05
(UTC-08:00)
Language:

PAYLOAD A - Orbit

View from above orbital plane
View from above orbital plane
View from above satellite
View from above satellite

Ground track
Ground track

The orbit data is extracted from the following two-line orbital elements,

1 27840U 03031A   17054.53908202  .00000010  00000-0  16232-4 0  9993
2 27840  98.2020  56.9613 0099489 101.5110 259.7270 14.38875092716971
Epoch (UTC): 23 February 2017 12:56:16
Eccentricity: 0.0099489
inclination: 98.2020°
perigee height: 691 km
apogee height: 833 km
right ascension of ascending node: 56.9613°
argument of perigee: 101.5110°
revolutions per day: 14.38875092
mean anomaly at epoch: 259.7270°
orbit number at epoch: 71697

The dashed part of the orbit path shows where the satellite is in the earth's shadow,  

DLR